• Join FlightAware (Why Join?)
  • Login
  • US Flag 
12:15PM EST


 

Airport Tracker/Info


-or-


 

Live Flight TrackerFlight Track Log ✈ KAP927 ✈ 04-May-2013 ✈ KALB - KOGS

Flight Track Log - Related Links

Times and Time Zones

All times are in EDT time to prevent confusion due to time zone crossing. See the KAP927 flight status page for this flight to view local times or setup timezone preferences in your user account.

Time Position Orientation Groundspeed Altitude Reporting Facility
EDT Latitude Longitude Course Direction KTS MPH feet Rate Location/Type
02:20PM 42.8044 -73.8297 341° North 121 139 1,700  Level Boston Center
02:21PM 42.8356 -73.8444 341° North 116 133 2,400 590 Climbing Boston Center
02:22PM 42.8667 -73.8536 348° North 113 130 2,900 567 Climbing Boston Center
02:23PM 42.9042 -73.8714 341° North 128 147 3,600 541 Climbing Boston Center
02:24PM 42.9414 -73.8836 346° North 135 155 4,100 403 Climbing Boston Center
02:25PM 42.9808 -73.9017 341° North 137 158 4,500 275 Climbing Boston Center
02:26PM 43.0119 -73.9108 348° North 148 170 4,600 58 Climbing Boston Center
02:27PM 43.0556 -73.9261 346° North 169 194 4,600  Level Boston Center
02:28PM 43.1011 -73.9472 341° North 174 200 4,600  Level Boston Center
02:29PM 43.1467 -73.9653 344° North 175 201 4,600 -49 Level Boston Center
02:30PM 43.1944 -73.9864 342° North 175 201 4,500  Descending Boston Center
02:30PM 43.2153 -73.9869 359° North 176 203 4,600 72 Climbing Boston Center
02:31PM 43.2586 -74.0081 340° North 176 203 4,600  Level Boston Center
02:32PM 43.3022 -74.0233 346° North 181 208 4,600  Level Boston Center
02:33PM 43.3458 -74.0417 343° North 173 199 4,600 150 Level Boston Center
02:34PM 43.3786 -74.0742 324° Northwest 155 178 4,900 400 Climbing Boston Center
02:35PM 43.4094 -74.1064 323° Northwest 147 169 5,400 550 Climbing Boston Center
02:36PM 43.4403 -74.1386 323° Northwest 142 163 6,000 700 Climbing Boston Center
02:37PM 43.4711 -74.1708 323° Northwest 136 157 6,800 700 Climbing Boston Center
02:38PM 43.4997 -74.2003 323° Northwest 136 157 7,400 550 Climbing Boston Center
02:39PM 43.5325 -74.2328 324° Northwest 136 157 7,900 500 Climbing Boston Center
02:40PM 43.5656 -74.2625 327° Northwest 136 157 8,400 400 Climbing Boston Center
02:41PM 43.5983 -74.2978 322° Northwest 136 157 8,700 300 Climbing Boston Center
02:42PM 43.6350 -74.3364 323° Northwest 149 171 9,000 450 Climbing Boston Center
02:43PM 43.6678 -74.3717 322° Northwest 149 171 9,600 550 Climbing Boston Center
02:44PM 43.7006 -74.4044 324° Northwest 149 171 10,100 450 Climbing Boston Center
02:45PM 43.7333 -74.4428 320° Northwest 149 171 10,500 250 Climbing Boston Center
02:46PM 43.7703 -74.4786 325° Northwest 149 171 10,600 -50 Climbing Boston Center
02:47PM 43.8092 -74.5172 324° Northwest 160 184 10,400 -500 Descending Boston Center
02:48PM 43.8542 -74.5619 324° Northwest 177 204 9,600 -650 Descending Boston Center
02:49PM 43.8969 -74.6067 323° Northwest 191 220 9,100 -500 Descending Boston Center
02:50PM 43.9400 -74.6544 321° Northwest 197 227 8,600 -600 Descending Boston Center
02:51PM 43.9831 -74.6936 327° Northwest 197 227 7,900 -700 Descending Boston Center
02:52PM 44.0258 -74.7356 325° Northwest 197 227 7,200 -450 Descending Boston Center
02:53PM 44.0667 -74.7775 324° Northwest 192 221 7,000 -250 Descending Boston Center
02:54PM 44.1075 -74.8169 325° Northwest 192 221 6,700 -300 Descending Boston Center
02:55PM 44.1464 -74.8561 324° Northwest 187 215 6,400 -350 Descending Boston Center
02:56PM 44.1872 -74.8983 323° Northwest 187 215 6,000 -350 Descending Boston Center
02:57PM 44.2300 -74.9406 325° Northwest 182 209 5,700 -300 Descending Boston Center
02:58PM 44.2708 -74.9828 323° Northwest 182 209 5,400 -350 Descending Boston Center
02:59PM 44.3072 -75.0250 320° Northwest 177 204 5,000 -400 Descending Boston Center
03:00PM 44.3461 -75.0617 326° Northwest 177 204 4,600 -200 Descending Boston Center
03:01PM 44.3847 -75.1039 322° Northwest 177 204 4,600 -200 Level Boston Center
03:02PM 44.4172 -75.1375 324° Northwest 177 204 4,200 -400 Descending Boston Center
03:03PM 44.4639 -75.1889 322° Northwest 177 204 3,800 -350 Descending Boston Center
03:04PM 44.5025 -75.2286 324° Northwest 177 204 3,500 -350 Descending Boston Center
03:05PM 44.5436 -75.2625 330° Northwest 172 198 3,100 -250 Descending Boston Center
03:06PM 44.5781 -75.2964 325° Northwest 172 198 3,000 -100 Descending Boston Center